Location: Banff
(51.1667°N, 115.5667°W)
Time: 22:27:03
(UTC+00:00)

A-11 Canister half - All Passes

Search period start: 25 November 2020 00:00
Search period end: 05 December 2020 00:00
Orbit: 1516 x 1684 km, 47.2° (Epoch: 25 November)

Date Brightness Start Highest point End Pass type
(mag) Time Alt. Az. Time Alt. Az. Time Alt. Az.
25 Nov - 00:25:14 10° W 00:35:15 67° SSW 00:45:16 10° ESE visible
25 Nov - 02:30:12 10° W 02:39:20 40° SW 02:48:22 10° SSE visible
25 Nov - 04:37:54 10° W 04:42:02 13° WSW 04:46:09 10° SSW visible
25 Nov - 17:56:41 10° SSE 18:00:53 13° ESE 18:05:07 10° E daylight
25 Nov - 19:54:38 10° SSW 20:03:34 40° SE 20:12:42 10° E daylight
25 Nov - 21:57:44 10° WSW 22:07:38 68° SSE 22:17:42 10° E daylight
26 Nov - 00:02:18 10° W 00:12:19 68° SSW 00:22:22 10° ESE visible
26 Nov - 02:07:14 10° W 02:16:27 41° SW 02:25:37 10° SSE visible
26 Nov - 04:14:29 10° W 04:19:15 14° SW 04:24:00 10° SSW visible
26 Nov - 17:34:41 10° SE 17:38:06 12° ESE 17:41:33 10° ESE daylight
26 Nov - 19:31:54 10° SSW 19:40:42 38° SE 19:49:43 10° E daylight
26 Nov - 21:34:51 10° WSW 21:44:43 66° SSE 21:54:46 10° E daylight
26 Nov - 23:39:22 10° W 23:49:23 69° S 23:59:27 10° ESE daylight
27 Nov - 01:44:16 10° W 01:53:35 43° SW 02:02:50 10° SSE visible
27 Nov - 03:51:09 10° W 03:56:28 16° SW 04:01:45 10° SSW visible
27 Nov - 17:12:59 10° SE 17:15:21 11° ESE 17:17:43 10° ESE daylight
27 Nov - 19:09:11 10° SSW 19:17:51 37° SE 19:26:45 10° E daylight
27 Nov - 21:11:58 10° WSW 21:21:47 65° SSE 21:31:49 10° E daylight
27 Nov - 23:16:27 10° W 23:26:27 70° S 23:36:32 10° ESE daylight
28 Nov - 01:21:19 10° W 01:30:42 45° SSW 01:40:04 10° SE visible
28 Nov - 03:27:54 10° W 03:33:40 17° SW 03:39:25 10° SSW visible
28 Nov - 18:46:29 10° SSW 18:55:00 35° SE 19:03:45 10° E daylight
28 Nov - 20:49:06 10° WSW 20:58:52 64° SSE 21:08:52 10° E daylight
28 Nov - 22:53:32 10° W 23:03:31 70° S 23:13:37 10° ESE daylight
29 Nov - 00:58:22 10° W 01:07:49 46° SSW 01:17:16 10° SE visible
29 Nov - 03:04:41 10° W 03:10:52 18° SW 03:17:03 10° SSW visible
29 Nov - 18:23:48 10° SSW 18:32:10 33° SE 18:40:44 10° E daylight
29 Nov - 20:26:14 10° WSW 20:35:57 63° SSE 20:45:55 10° E daylight
29 Nov - 22:30:36 10° W 22:40:35 71° S 22:50:42 10° ESE daylight
30 Nov - 00:35:25 10° W 00:44:56 48° SSW 00:54:27 10° SE visible
30 Nov - 02:41:31 10° W 02:48:04 20° SW 02:54:36 10° S visible
30 Nov - 18:01:08 10° SSW 18:09:20 32° SE 18:17:44 10° E daylight
30 Nov - 20:03:23 10° WSW 20:13:02 62° SSE 20:22:58 10° E daylight
30 Nov - 22:07:41 10° W 22:17:39 71° S 22:27:45 10° ESE daylight
01 Dec - 00:12:28 10° W 00:22:02 50° SSW 00:31:38 10° SE visible
01 Dec - 02:18:24 10° W 02:25:16 21° SW 02:32:07 10° S visible
01 Dec - 17:38:29 10° SSW 17:46:30 30° SE 17:54:43 10° E daylight
01 Dec - 19:40:32 10° SW 19:50:08 60° SSE 20:00:01 10° E daylight
01 Dec - 21:44:46 10° W 21:54:43 72° S 22:04:50 10° ESE daylight
01 Dec - 23:49:32 10° W 23:59:08 51° SSW 00:08:48 10° SE daylight
02 Dec - 01:55:18 10° W 02:02:26 22° SW 02:09:35 10° S visible
02 Dec - 17:15:51 10° S 17:23:40 29° SE 17:31:41 10° E daylight
02 Dec - 19:17:41 10° SW 19:27:13 59° SSE 19:37:03 10° E daylight
02 Dec - 21:21:51 10° W 21:31:47 72° S 21:41:53 10° ESE daylight
02 Dec - 23:26:36 10° W 23:36:15 53° SSW 23:45:58 10° SE daylight
03 Dec - 01:32:13 10° W 01:39:37 24° SW 01:47:02 10° S visible
03 Dec - 16:53:15 10° S 17:00:51 27° SE 17:08:39 10° E daylight
03 Dec - 18:54:51 10° SW 19:04:19 57° SSE 19:14:06 10° E daylight
03 Dec - 20:58:57 10° W 21:08:50 72° S 21:18:57 10° E daylight
03 Dec - 23:03:39 10° W 23:13:20 55° SSW 23:23:07 10° SE daylight
04 Dec - 01:09:10 10° W 01:16:48 25° SW 01:24:27 10° S visible
04 Dec - 16:30:40 10° S 16:38:02 25° SE 16:45:36 10° E daylight
04 Dec - 18:32:01 10° SW 18:41:26 55° SSE 18:51:09 10° E daylight
04 Dec - 20:36:03 10° W 20:45:55 72° S 20:56:01 10° E daylight
04 Dec - 22:40:44 10° W 22:50:26 56° SSW 23:00:15 10° SE daylight
